Location: Cisewo
(53.3833°N, 14.9000°E)
Time: 12:21:14
(UTC+00:00)

Resurs 01 Rocket - Pass Details

Date: 18 April 2021
Orbit: 634 x 644 km, 97.9° (Epoch: 14 May)

Event Time Altitude Azimuth Distance (km) Brightness Sun altitude
Exits shadow 19:12:45 - 158° (SSE) 2,249 3.9 -9.6°
Reaches altitude 10° 19:13:16 10° 158° (SSE) 2,040 3.7 -9.6°
Maximum altitude 19:17:43 77° 73° (ENE) 669 1.6 -10.2°
Drops below altitude 10° 19:22:11 10° 348° (NNW) 2,056 5.0 -10.7°
Sets 19:24:25 0° 347° (NNW) 2,970 5.9 -11.0°
